Location: Key Biscayne
(25.6930°N, 80.1630°W)
Time: 14:27:50
(UTC-05:00)

Vanguard 2 - All Passes

Search period start: 19 November 2017 00:00
Search period end: 29 November 2017 00:00
Orbit: 553 x 2940 km, 32.9° (Epoch: 19 November)

Date Brightness Start Highest point End Pass type
(mag) Time Alt. Az. Time Alt. Az. Time Alt. Az.
19 Nov - 01:39:17 10° WNW 01:49:03 62° N 02:04:45 10° E visible
19 Nov - 03:48:44 10° WNW 04:01:56 83° NNE 04:20:04 10° ESE visible
19 Nov - 05:59:26 10° WNW 06:14:52 57° SSW 06:31:53 10° SE visible
19 Nov - 08:14:50 10° W 08:26:45 22° SW 08:38:03 10° S daylight
19 Nov - 21:41:04 10° SW 21:46:17 59° SSE 21:54:50 10° ENE night (unlit)
19 Nov - 23:48:44 10° W 23:55:55 64° N 00:08:16 10° ENE visible
20 Nov - 01:57:37 10° WNW 02:07:42 64° N 02:23:46 10° E visible
20 Nov - 04:07:01 10° WNW 04:20:26 86° SSW 04:38:36 10° ESE visible
20 Nov - 06:18:09 10° WNW 06:33:05 46° SW 06:49:19 10° SSE visible
20 Nov - 08:36:36 10° WSW 08:44:53 15° SW 08:52:51 10° SSW daylight
20 Nov - 19:54:04 10° S 19:56:43 15° SE 19:59:52 10° ESE visible
20 Nov - 21:58:57 10° WSW 22:04:20 83° SSE 22:13:22 10° ENE night (unlit)
21 Nov - 00:07:03 10° W 00:14:28 59° N 00:27:04 10° ENE visible
21 Nov - 02:15:53 10° WNW 02:26:18 69° NNE 02:42:46 10° E visible
21 Nov - 04:25:18 10° WNW 04:38:51 75° SSW 04:56:52 10° SE visible
21 Nov - 06:37:13 10° W 06:51:17 36° SW 07:06:22 10° SSE daylight
21 Nov - 20:10:40 10° SSW 20:14:24 25° SE 20:19:22 10° E visible
21 Nov - 22:17:02 10° WSW 22:22:33 77° NNW 22:31:51 10° ENE night (unlit)
22 Nov - 00:25:23 10° WNW 00:33:02 57° N 00:45:58 10° E visible
22 Nov - 02:34:06 10° WNW 02:44:50 77° NNE 03:01:39 10° ESE visible
22 Nov - 04:43:41 10° WNW 04:57:12 63° SSW 05:14:49 10° SE visible
22 Nov - 06:56:49 10° W 07:09:30 27° SW 07:22:53 10° S daylight
22 Nov - 20:28:01 10° SW 20:32:12 42° SE 20:38:11 10° ENE visible
22 Nov - 22:35:15 10° W 22:40:54 63° NNW 22:50:23 10° ENE night (unlit)
23 Nov - 00:43:41 10° WNW 00:51:36 58° N 01:04:58 10° E visible
23 Nov - 02:52:18 10° WNW 03:03:17 87° NNE 03:20:20 10° ESE visible
23 Nov - 05:02:13 10° WNW 05:15:32 51° SSW 05:32:28 10° SE visible
23 Nov - 07:17:22 10° WSW 07:27:47 19° SW 07:38:36 10° S daylight
23 Nov - 20:45:45 10° SW 20:50:08 66° SSE 20:56:43 10° ENE visible
23 Nov - 22:53:33 10° W 22:59:20 55° N 23:09:00 10° ENE night (unlit)
24 Nov - 01:01:54 10° WNW 01:10:07 62° NNE 01:23:58 10° E visible
24 Nov - 03:10:31 10° WNW 03:21:41 81° SSW 03:38:47 10° ESE visible
24 Nov - 05:21:00 10° W 05:33:51 40° SW 05:49:45 10° SSE visible
24 Nov - 07:40:08 10° WSW 07:46:12 13° SW 07:52:22 10° SSW daylight
24 Nov - 18:58:05 10° S 19:00:33 15° SE 19:03:15 10° ESE visible
24 Nov - 21:03:44 10° WSW 21:08:14 85° NNW 21:15:07 10° ENE night (unlit)
24 Nov - 23:11:52 10° WNW 23:17:49 51° N 23:27:44 10° ENE night (unlit)
25 Nov - 01:20:05 10° WNW 01:28:34 70° NNE 01:42:55 10° E visible
25 Nov - 03:28:46 10° WNW 03:40:02 68° SSW 03:56:58 10° SE visible
25 Nov - 05:40:11 10° W 05:52:12 31° SW 06:06:34 10° SSE visible
25 Nov - 19:14:57 10° SSW 19:18:22 27° SE 19:22:26 10° E visible
25 Nov - 21:21:54 10° W 21:26:28 63° NNW 21:33:29 10° ENE night (unlit)
25 Nov - 23:30:08 10° WNW 23:36:17 51° N 23:46:35 10° E night (unlit)
26 Nov - 01:38:13 10° WNW 01:46:57 80° NNE 02:01:44 10° ESE visible
26 Nov - 03:47:09 10° WNW 03:58:24 55° SSW 04:14:49 10° SE visible
26 Nov - 06:00:03 10° W 06:10:35 23° SW 06:22:45 10° S visible
26 Nov - 19:32:27 10° SW 19:36:17 47° SSE 19:41:02 10° ENE visible
26 Nov - 21:40:11 10° W 21:44:48 51° N 21:51:55 10° ENE night (unlit)
26 Nov - 23:48:21 10° WNW 23:54:44 54° N 00:05:30 10° E night (unlit)
27 Nov - 01:56:22 10° WNW 02:05:17 87° SSW 02:20:19 10° ESE visible
27 Nov - 04:05:44 10° W 04:16:46 43° SSW 04:32:18 10° SSE visible
27 Nov - 06:21:14 10° WSW 06:29:07 15° SW 06:37:46 10° S visible
27 Nov - 17:45:58 10° SSE 17:46:34 10° SE 17:47:09 10° SE daylight
27 Nov - 19:50:21 10° WSW 19:54:18 79° SSE 19:59:24 10° ENE visible
27 Nov - 21:58:30 10° WNW 22:03:12 45° N 22:10:26 10° ENE night (unlit)
28 Nov - 00:06:29 10° WNW 00:13:07 61° NNE 00:24:25 10° E night (unlit)
28 Nov - 02:14:32 10° WNW 02:23:36 73° SSW 02:38:40 10° SE visible
28 Nov - 04:24:38 10° W 04:35:11 33° SSW 04:49:22 10° SSE visible
28 Nov - 18:01:34 10° SSW 18:04:33 19° SSE 18:07:29 10° E visible
28 Nov - 20:08:28 10° WSW 20:12:27 69° NNW 20:17:40 10° ENE visible
28 Nov - 22:16:47 10° WNW 22:21:37 43° N 22:29:05 10° ENE night (unlit)
